SCP
0 0 0 0 0 0 0 0 0 0 0 -0 0 0 0 0 0 0 0 0 0 0 0 0 0 0 0 0 0 0 -0 0 0 -0 -0 -0 0 0 0 0 0 0 0 0
0 0 0 0 0 0 0 -0 0 0 0 0 0 0 0 0 0 0 0 0 0 0 0 0 0 0 0 0 0 0 0 0 0 -0 -0 -0 -0 -0 0 0 0 0 0 0
0 0 0 0 0 0 0 -0 0 0 -0 0 0 0 0 0 0 0 0 0 0 0 0 0 0 0 0 0 0 -0 0 -0 -0 0 -0 0 0 -0 -0 -0 0 0 0 0
0 0 0 0 0 -0 -0 0 0 0 0 0 0 0 0 0 0 0 0 0 0 0 0 0 0 0 0 0 0 0 0 -0 -0 -0 -0 0 0 -0 0 -0 0 0 0 0
0 0 0 0 0 -0 -0 0 0 0 -0 0 0 0 0 0 0 0 0 0 0 0 0 0 -0 0 -0 0 0 0 0 0 -0 -0 0 -0 0 -0 0 -0 0 0 0 -0
0 0 0 0 0 0 0 0 0 0 -0 0 0 0 0 0 0 0 0 0 0 0 0 0 0 0 0 0 0 0 0 0 0 0 0 -0 0 -0 -0 -0 0 0 0 -0
0 0 0 0 0 0 0 0 0 0 0 0 0 0 0 0 0 0 0 0 0 0 0 0 0 0 0 -0 -0 0 0 0 0 0 0 0 -0 -0 -0 -0 0 0 0 0
0 0 0 0 0 0 0 0 0 0 0 0 0 0 0 0 0 0 0 0 0 0 0 0 0 0 -0 -0 -0 -0 0 0 0 0 0 0 -0 -0 -0 0 0 0 0 -0
0 0 0 0 0 0 0 0 0 0 0 0 0 0 0 0 0 0 0 0 0 0 0 0 0 0 0 -0 0 0 0 0 0 0 0 0 0 0 0 0 0 0 0 0
0 0 0 0 0 0 0 0 0 0 0 0 0 0 0 0 0 0 0 -0 0 0 0 0 0 0 0 -0 -0 -0 -0 0 0 0 0 0 -0 -0 0 -0 0 0 0 0
0 0 0 0 0 0 0 0 0 0 0 0 0 0 0 0 0 0 0 0 0 0 0 0 0 0 0 -0 -0 0 -0 -0 0 0 0 -0 -0 -0 0 0 0 0 0 1
0 0 0 0 0 0 0 0 0 0 0 0 0 0 0 0 0 0 0 0 0 0 0 0 0 0 0 -0 0 -0 0 -0 0 0 0 -0 0 -0 0 0 0 0 0 1
0 0 0 0 0 0 0 0 0 0 0 0 0 0 0 0 0 0 0 0 0 0 0 0 0 0 0 0 0 0 -0 -0 0 -0 0 -0 -0 0 -0 0 0 0 0 0
0 0 0 0 0 0 0 0 0 0 0 0 0 0 0 0 0 0 0 -0 -0 0 0 0 0 0 0 0 0 0 0 -0 -0 -0 -0 -0 -0 -0 0 0 0 0 0 0
0 0 0 0 0 0 0 0 0 0 0 0 0 0 0 0 0 0 0 0 0 0 0 0 0 0 0 0 0 -0 -0 0 0 0 -0 -0 -0 -0 0 0 0 0 0 0
0 0 0 0 0 0 0 0 0 0 0 0 0 0 0 0 0 0 0 0 0 0 0 0 0 0 0 0 0 0 -0 -0 0 0 -0 -0 -0 -0 -0 -0 0 0 0 0
0 0 0 0 0 0 0 0 0 0 0 0 0 0 0 0 0 0 0 0 0 0 0 0 0 0 0 0 0 0 0 0 0 0 -0 0 -0 -0 -0 0 -0 -0 0 0
0 0 0 0 0 0 0 0 0 0 0 0 0 0 0 0 0 0 0 0 0 0 0 0 0 0 0 -0 -0 0 0 0 0 0 0 0 0 -0 -0 -0 -0 -0 0 0
0 0 0 0 0 0 0 0 0 0 0 0 0 0 0 0 0 0 0 0 0 0 0 0 0 0 0 0 0 0 -0 0 -0 0 0 0 0 -0 -0 -0 -0 0 -0 0
0 0 0 0 0 0 0 0 0 0 0 0 0 0 0 0 0 0 0 0 0 0 0 0 0 0 0 0 0 0 0 0 0 0 0 0 0 0 0 0 0 -0 -0 0
0 0 0 0 0 0 0 0 0 0 0 0 0 0 -0 -0 0 0 -0 0 0 0 0 0 0 0 0 0 0 0 0 0 0 0 0 0 0 0 0 0 0 0 0 0
0 0 0 0 0 0 0 0 0 0 0 0 0 0 0 0 0 0 0 0 0 0 0 0 0 0 0 0 0 0 0 0 0 0 0 0 0 0 0 0 0 0 0 0
0 0 0 0 0 0 0 0 0 0 0 0 0 0 0 0 0 0 0 0 0 0 0 0 0 0 0 0 0 0 -0 -0 0 0 0 0 0 0 0 0 0 0 0 0
0 0 0 0 0 0 0 0 0 0 0 0 0 0 0 0 0 0 0 0 0 0 0 0 0 0 0 0 0 0 0 0 -0 -0 -0 -0 0 0 0 0 0 0 0 0
0 0 0 0 0 0 0 0 0 0 0 0 0 0 0 0 0 0 0 0 0 0 0 0 0 0 0 0 0 0 -0 -0 -0 -0 -0 0 0 0 0 0 0 0 0 0
0 0 0 0 0 0 0 0 0 0 0 0 0 0 0 0 0 0 0 0 0 0 0 0 0 0 0 0 0 0 0 0 0 -0 -0 -0 -0 0 0 0 0 0 0 0
0 0 0 0 0 0 0 0 0 0 0 0 0 0 0 0 0 0 0 0 0 0 0 0 0 0 0 0 0 0 0 0 0 0 0 0 -0 -0 -0 -0 0 0 0 0
Wind_Speed_500mb
65 66 69 77 85 89 79 24 12 21 30 24 21 11 19 17 23 31 26 21 32 32 35 35 15 14 7 21 21 11 20 13 21 34 25 29 20 32 36 22 33 27 32 31
64 65 66 70 74 80 64 29 23 12 30 13 16 25 28 14 23 27 27 21 29 37 36 19 15 14 9 15 8 11 8 14 17 23 13 14 27 35 38 38 34 37 28 31
61 62 63 66 69 64 37 25 12 20 19 7 25 29 22 24 23 27 24 34 33 31 36 31 21 22 10 22 23 31 13 21 26 26 16 10 30 48 47 45 31 38 39 46
60 59 61 62 65 59 31 23 13 12 14 27 31 29 27 32 30 21 37 20 31 40 37 31 7 14 9 23 33 15 12 15 32 41 48 28 35 49 61 55 50 48 49 39
58 60 60 58 60 55 23 24 18 25 40 25 27 10 23 28 35 36 34 31 40 41 37 34 49 26 3 11 11 18 10 9 26 44 42 42 28 41 57 61 53 54 57 26
55 55 58 60 55 48 21 28 22 22 28 24 23 17 26 37 38 23 26 37 39 40 45 55 51 8 17 19 14 22 11 10 8 13 13 16 19 39 54 54 61 56 49 39
54 51 55 58 54 44 21 26 24 26 20 24 27 38 35 37 36 36 46 36 32 48 56 56 13 19 22 23 28 26 14 22 5 8 10 11 9 6 44 57 54 53 46 33
51 49 51 54 53 47 31 19 23 23 19 37 29 42 39 46 40 31 31 26 35 44 52 20 12 6 10 14 27 30 33 23 4 5 10 13 9 17 14 23 35 43 45 47
50 50 48 50 51 46 36 19 14 21 25 7 36 35 43 27 26 23 35 33 37 36 20 13 8 8 11 11 17 8 16 33 5 5 6 6 6 28 50 23 20 17 22 31
50 51 50 49 47 42 35 16 21 10 26 30 37 37 26 36 26 20 39 45 28 35 21 11 6 9 15 11 16 26 22 17 13 16 2 5 29 38 43 16 3 44 32 42
52 51 49 47 46 40 32 17 25 14 21 57 21 21 39 38 38 24 35 26 7 18 18 12 10 5 7 9 22 18 13 11 9 10 10 10 55 12 7 23 51 50 36 30
55 54 51 49 42 35 29 23 21 26 33 55 81 46 35 46 49 45 24 30 25 13 11 12 11 11 5 15 8 21 5 3 6 5 7 15 29 22 41 41 45 36 23 30
55 55 50 48 43 29 27 20 25 33 29 59 25 27 17 21 24 28 26 8 12 9 14 15 9 7 3 10 10 7 9 22 7 16 11 31 29 37 60 67 40 7 11 27
48 51 52 46 35 22 23 27 29 25 15 11 16 19 26 25 28 29 42 39 27 27 26 11 8 9 5 6 9 5 7 22 18 11 20 48 14 58 74 57 36 14 7 14
47 47 44 35 25 21 22 28 38 38 20 12 37 57 12 9 21 23 27 31 29 28 19 8 10 15 9 5 5 6 4 7 7 7 35 30 42 51 49 41 35 17 10 16
36 33 31 23 21 17 14 7 18 25 23 10 10 25 28 26 24 24 27 28 26 27 10 12 9 5 10 6 5 2 6 14 20 15 40 48 37 33 49 15 22 24 16 15
27 24 20 20 19 17 17 9 10 11 4 9 15 12 11 13 20 22 21 22 24 18 9 12 14 9 6 5 7 6 14 19 23 19 34 23 38 37 47 39 35 22 27 23
26 21 18 19 20 24 36 21 43 39 12 11 8 11 27 20 22 26 25 15 14 13 15 11 15 11 10 7 13 10 18 23 16 26 22 22 28 30 38 33 29 26 24 35
21 15 15 25 24 16 11 20 18 18 18 9 12 10 7 8 22 15 18 18 9 14 14 16 8 11 7 7 12 9 13 18 25 22 21 24 29 33 36 31 33 25 24 28
16 12 5 12 14 19 14 11 15 19 13 14 14 33 22 17 16 7 10 15 12 8 8 7 9 10 8 6 3 4 8 14 23 20 25 32 30 31 32 31 24 25 16 21
14 9 10 6 8 12 8 12 13 16 10 18 19 35 25 26 15 7 14 5 7 7 6 6 8 5 14 12 9 6 8 13 16 16 16 17 18 21 22 23 21 17 13 16
16 11 10 6 10 12 12 10 13 15 11 24 24 25 34 17 17 13 6 8 6 6 6 6 6 10 21 18 16 10 8 10 13 16 19 23 22 18 18 17 15 14 11 11
21 9 12 14 15 14 13 18 10 9 17 18 21 15 17 20 18 12 8 8 7 3 7 7 7 24 20 18 19 13 10 11 13 13 16 21 24 25 23 19 15 12 10 13
13 14 10 11 12 13 22 23 20 12 10 15 24 19 11 17 11 11 7 7 5 7 10 2 14 24 23 17 16 19 15 16 17 19 19 21 25 29 29 28 22 15 12 12
16 14 11 17 31 40 17 20 27 17 13 19 17 12 18 8 8 6 5 6 9 8 6 8 30 28 26 22 21 22 21 19 18 16 17 20 22 25 29 30 32 27 19 16
12 14 12 28 25 24 32 30 29 27 25 16 8 9 7 11 7 9 13 8 2 6 8 25 28 30 28 29 28 24 22 20 18 16 16 16 18 21 23 24 25 25 24 28
13 18 40 45 41 30 18 14 22 18 20 12 8 10 15 3 6 8 7 5 4 10 20 20 24 31 33 34 31 28 25 21 17 15 13 14 15 15 12 14 16 19 21 20
Wind_Direction_500mb
351 355 356 356 355 358 3 350 319 341 340 297 349 341 334 322 317 322 314 292 299 323 327 310 284 251 246 299 331 284 276 301 268 231 231 237 261 220 228 230 229 257 275 280
348 351 355 356 359 359 355 344 310 321 5 9 340 336 322 299 305 319 309 293 309 312 311 311 236 271 260 284 257 239 262 231 261 258 237 244 232 219 251 242 254 262 261 253
346 348 352 355 358 2 5 339 334 346 321 355 350 336 321 326 326 319 311 306 291 291 326 324 285 276 264 240 238 237 249 255 249 267 280 192 217 255 224 235 234 238 244 245
342 346 349 354 356 6 13 354 359 4 311 332 327 305 311 319 332 323 309 288 311 335 318 320 263 277 261 258 245 215 220 251 261 269 267 228 225 223 237 226 228 228 233 242
339 343 347 351 356 5 358 346 341 327 296 313 313 330 322 321 323 318 302 301 312 312 307 326 319 328 225 262 143 198 194 252 268 277 274 271 219 211 247 226 225 230 236 229
337 340 344 346 355 5 353 340 331 296 292 318 319 334 320 309 309 312 300 303 309 306 338 322 312 246 241 229 276 199 224 225 235 255 314 293 248 225 215 207 216 228 229 233
337 342 341 341 347 355 350 327 326 309 303 317 330 310 310 315 312 301 298 298 302 321 323 314 268 246 255 207 239 243 240 248 211 259 262 231 23 319 196 220 209 217 224 213
328 333 335 336 338 342 349 331 322 316 300 312 309 329 316 311 305 317 306 312 320 321 310 309 328 222 273 292 232 232 227 251 224 255 228 334 10 340 294 233 213 212 222 231
315 318 323 328 330 333 342 322 302 300 309 333 324 317 307 317 322 320 323 321 329 318 297 335 333 321 325 304 319 293 254 227 133 242 251 209 274 310 280 276 246 235 258 258
302 306 312 317 321 323 328 298 316 282 277 283 319 304 310 305 307 300 303 338 317 330 333 3 336 325 4 318 312 337 339 336 314 306 309 77 351 346 124 166 60 323 291 271
290 294 302 305 310 313 320 286 291 281 270 293 273 291 287 289 285 286 338 314 354 336 341 340 353 309 355 293 315 309 344 324 354 327 354 9 348 10 12 312 302 291 282 254
283 285 289 295 297 300 309 299 276 284 266 276 298 290 272 254 260 275 279 302 295 334 338 350 324 341 351 317 291 350 355 69 291 296 298 357 325 343 323 314 300 287 254 150
283 282 283 288 287 288 292 283 273 299 293 312 290 281 267 256 261 241 248 253 359 349 349 337 299 299 252 316 337 310 329 30 270 332 26 331 322 351 350 357 354 32 131 131
287 284 282 284 276 269 278 269 292 283 279 284 292 305 283 277 265 240 232 252 277 296 296 276 284 281 207 306 299 279 356 321 321 280 348 335 74 349 345 353 10 49 159 122
282 281 280 273 258 262 268 271 273 277 250 294 302 309 312 216 211 231 240 244 255 273 283 245 269 289 316 148 297 250 64 329 337 295 324 315 305 331 351 357 8 21 66 126
289 279 268 257 254 254 281 279 252 247 226 287 300 312 278 253 234 244 245 239 240 245 263 272 268 302 308 303 269 281 311 288 296 295 322 314 327 341 8 19 31 48 86 143
282 270 265 261 259 246 227 252 190 211 215 268 283 280 193 217 234 239 237 220 225 245 243 236 275 199 254 269 274 293 322 321 317 323 344 352 346 332 359 19 38 81 99 122
268 263 270 275 278 271 269 267 250 256 258 247 269 268 267 195 246 206 211 220 210 225 248 246 270 172 237 256 272 331 324 326 325 336 354 347 343 353 22 29 33 80 107 129
260 260 285 296 260 239 219 231 247 200 212 250 223 272 290 187 248 269 231 192 232 225 231 221 202 233 213 279 330 342 344 351 329 335 1 3 15 10 19 39 41 53 96 143
245 265 267 240 176 235 227 173 173 194 221 235 257 246 257 274 297 272 244 198 211 223 213 158 229 223 89 111 63 22 33 18 7 10 5 4 13 16 16 25 45 68 72 137
217 216 232 240 262 221 219 210 193 189 229 220 234 231 241 241 250 302 285 223 227 269 145 256 223 173 121 138 121 92 70 53 40 38 29 18 14 15 21 31 43 63 79 132
204 214 243 219 218 219 245 214 196 204 239 191 214 201 207 219 226 245 248 256 257 261 175 238 236 104 131 140 136 114 82 58 58 39 41 35 32 29 36 46 51 72 98 138
233 212 232 193 214 230 232 203 212 207 221 210 206 191 205 210 220 247 225 242 227 196 229 221 89 133 132 128 129 122 99 80 81 69 61 54 53 48 47 53 63 80 109 153
206 203 235 223 196 234 223 246 263 233 163 244 213 192 213 215 205 237 235 225 228 236 220 230 135 139 139 134 132 127 111 101 94 79 71 69 65 65 63 60 64 78 107 141
218 214 232 219 240 261 280 285 275 258 251 252 233 221 225 228 238 248 242 237 227 234 54 112 120 140 143 141 138 134 131 121 109 97 79 70 67 65 66 66 67 70 90 115
224 224 252 265 281 268 258 242 250 256 249 248 267 248 237 214 216 219 213 253 275 67 115 111 135 147 151 150 146 138 128 121 114 101 88 78 74 71 73 67 73 84 90 102
211 220 231 255 279 275 268 299 297 302 274 236 231 238 218 222 222 222 205 225 132 123 125 140 153 158 156 153 148 142 137 128 119 107 97 93 83 71 63 71 88 104 105 107
Wind_Speed_850mb
65 66 69 77 85 89 79 24 12 21 30 24 21 11 19 17 23 31 26 21 32 32 35 35 15 14 7 21 21 11 20 13 21 34 25 29 20 32 36 22 33 27 32 31
64 65 66 70 74 80 64 29 23 12 30 13 16 25 28 14 23 27 27 21 29 37 36 19 15 14 9 15 8 11 8 14 17 23 13 14 27 35 38 38 34 37 28 31
61 62 63 66 69 64 37 25 12 20 19 7 25 29 22 24 23 27 24 34 33 31 36 31 21 22 10 22 23 31 13 21 26 26 16 10 30 48 47 45 31 38 39 46
60 59 61 62 65 59 31 23 13 12 14 27 31 29 27 32 30 21 37 20 31 40 37 31 7 14 9 23 33 15 12 15 32 41 48 28 35 49 61 55 50 48 49 39
58 60 60 58 60 55 23 24 18 25 40 25 27 10 23 28 35 36 34 31 40 41 37 34 49 26 3 11 11 18 10 9 26 44 42 42 28 41 57 61 53 54 57 26
55 55 58 60 55 48 21 28 22 22 28 24 23 17 26 37 38 23 26 37 39 40 45 55 51 8 17 19 14 22 11 10 8 13 13 16 19 39 54 54 61 56 49 39
54 51 55 58 54 44 21 26 24 26 20 24 27 38 35 37 36 36 46 36 32 48 56 56 13 19 22 23 28 26 14 22 5 8 10 11 9 6 44 57 54 53 46 33
51 49 51 54 53 47 31 19 23 23 19 37 29 42 39 46 40 31 31 26 35 44 52 20 12 6 10 14 27 30 33 23 4 5 10 13 9 17 14 23 35 43 45 47
50 50 48 50 51 46 36 19 14 21 25 7 36 35 43 27 26 23 35 33 37 36 20 13 8 8 11 11 17 8 16 33 5 5 6 6 6 28 50 23 20 17 22 31
50 51 50 49 47 42 35 16 21 10 26 30 37 37 26 36 26 20 39 45 28 35 21 11 6 9 15 11 16 26 22 17 13 16 2 5 29 38 43 16 3 44 32 42
52 51 49 47 46 40 32 17 25 14 21 57 21 21 39 38 38 24 35 26 7 18 18 12 10 5 7 9 22 18 13 11 9 10 10 10 55 12 7 23 51 50 36 30
55 54 51 49 42 35 29 23 21 26 33 55 81 46 35 46 49 45 24 30 25 13 11 12 11 11 5 15 8 21 5 3 6 5 7 15 29 22 41 41 45 36 23 30
55 55 50 48 43 29 27 20 25 33 29 59 25 27 17 21 24 28 26 8 12 9 14 15 9 7 3 10 10 7 9 22 7 16 11 31 29 37 60 67 40 7 11 27
48 51 52 46 35 22 23 27 29 25 15 11 16 19 26 25 28 29 42 39 27 27 26 11 8 9 5 6 9 5 7 22 18 11 20 48 14 58 74 57 36 14 7 14
47 47 44 35 25 21 22 28 38 38 20 12 37 57 12 9 21 23 27 31 29 28 19 8 10 15 9 5 5 6 4 7 7 7 35 30 42 51 49 41 35 17 10 16
36 33 31 23 21 17 14 7 18 25 23 10 10 25 28 26 24 24 27 28 26 27 10 12 9 5 10 6 5 2 6 14 20 15 40 48 37 33 49 15 22 24 16 15
27 24 20 20 19 17 17 9 10 11 4 9 15 12 11 13 20 22 21 22 24 18 9 12 14 9 6 5 7 6 14 19 23 19 34 23 38 37 47 39 35 22 27 23
26 21 18 19 20 24 36 21 43 39 12 11 8 11 27 20 22 26 25 15 14 13 15 11 15 11 10 7 13 10 18 23 16 26 22 22 28 30 38 33 29 26 24 35
21 15 15 25 24 16 11 20 18 18 18 9 12 10 7 8 22 15 18 18 9 14 14 16 8 11 7 7 12 9 13 18 25 22 21 24 29 33 36 31 33 25 24 28
16 12 5 12 14 19 14 11 15 19 13 14 14 33 22 17 16 7 10 15 12 8 8 7 9 10 8 6 3 4 8 14 23 20 25 32 30 31 32 31 24 25 16 21
14 9 10 6 8 12 8 12 13 16 10 18 19 35 25 26 15 7 14 5 7 7 6 6 8 5 14 12 9 6 8 13 16 16 16 17 18 21 22 23 21 17 13 16
16 11 10 6 10 12 12 10 13 15 11 24 24 25 34 17 17 13 6 8 6 6 6 6 6 10 21 18 16 10 8 10 13 16 19 23 22 18 18 17 15 14 11 11
21 9 12 14 15 14 13 18 10 9 17 18 21 15 17 20 18 12 8 8 7 3 7 7 7 24 20 18 19 13 10 11 13 13 16 21 24 25 23 19 15 12 10 13
13 14 10 11 12 13 22 23 20 12 10 15 24 19 11 17 11 11 7 7 5 7 10 2 14 24 23 17 16 19 15 16 17 19 19 21 25 29 29 28 22 15 12 12
16 14 11 17 31 40 17 20 27 17 13 19 17 12 18 8 8 6 5 6 9 8 6 8 30 28 26 22 21 22 21 19 18 16 17 20 22 25 29 30 32 27 19 16
12 14 12 28 25 24 32 30 29 27 25 16 8 9 7 11 7 9 13 8 2 6 8 25 28 30 28 29 28 24 22 20 18 16 16 16 18 21 23 24 25 25 24 28
13 18 40 45 41 30 18 14 22 18 20 12 8 10 15 3 6 8 7 5 4 10 20 20 24 31 33 34 31 28 25 21 17 15 13 14 15 15 12 14 16 19 21 20
Wind_Direction_850mb
351 355 356 356 355 358 3 350 319 341 340 297 349 341 334 322 317 322 314 292 299 323 327 310 284 251 246 299 331 284 276 301 268 231 231 237 261 220 228 230 229 257 275 280
348 351 355 356 359 359 355 344 310 321 5 9 340 336 322 299 305 319 309 293 309 312 311 311 236 271 260 284 257 239 262 231 261 258 237 244 232 219 251 242 254 262 261 253
346 348 352 355 358 2 5 339 334 346 321 355 350 336 321 326 326 319 311 306 291 291 326 324 285 276 264 240 238 237 249 255 249 267 280 192 217 255 224 235 234 238 244 245
342 346 349 354 356 6 13 354 359 4 311 332 327 305 311 319 332 323 309 288 311 335 318 320 263 277 261 258 245 215 220 251 261 269 267 228 225 223 237 226 228 228 233 242
339 343 347 351 356 5 358 346 341 327 296 313 313 330 322 321 323 318 302 301 312 312 307 326 319 328 225 262 143 198 194 252 268 277 274 271 219 211 247 226 225 230 236 229
337 340 344 346 355 5 353 340 331 296 292 318 319 334 320 309 309 312 300 303 309 306 338 322 312 246 241 229 276 199 224 225 235 255 314 293 248 225 215 207 216 228 229 233
337 342 341 341 347 355 350 327 326 309 303 317 330 310 310 315 312 301 298 298 302 321 323 314 268 246 255 207 239 243 240 248 211 259 262 231 23 319 196 220 209 217 224 213
328 333 335 336 338 342 349 331 322 316 300 312 309 329 316 311 305 317 306 312 320 321 310 309 328 222 273 292 232 232 227 251 224 255 228 334 10 340 294 233 213 212 222 231
315 318 323 328 330 333 342 322 302 300 309 333 324 317 307 317 322 320 323 321 329 318 297 335 333 321 325 304 319 293 254 227 133 242 251 209 274 310 280 276 246 235 258 258
302 306 312 317 321 323 328 298 316 282 277 283 319 304 310 305 307 300 303 338 317 330 333 3 336 325 4 318 312 337 339 336 314 306 309 77 351 346 124 166 60 323 291 271
290 294 302 305 310 313 320 286 291 281 270 293 273 291 287 289 285 286 338 314 354 336 341 340 353 309 355 293 315 309 344 324 354 327 354 9 348 10 12 312 302 291 282 254
283 285 289 295 297 300 309 299 276 284 266 276 298 290 272 254 260 275 279 302 295 334 338 350 324 341 351 317 291 350 355 69 291 296 298 357 325 343 323 314 300 287 254 150
283 282 283 288 287 288 292 283 273 299 293 312 290 281 267 256 261 241 248 253 359 349 349 337 299 299 252 316 337 310 329 30 270 332 26 331 322 351 350 357 354 32 131 131
287 284 282 284 276 269 278 269 292 283 279 284 292 305 283 277 265 240 232 252 277 296 296 276 284 281 207 306 299 279 356 321 321 280 348 335 74 349 345 353 10 49 159 122
282 281 280 273 258 262 268 271 273 277 250 294 302 309 312 216 211 231 240 244 255 273 283 245 269 289 316 148 297 250 64 329 337 295 324 315 305 331 351 357 8 21 66 126
289 279 268 257 254 254 281 279 252 247 226 287 300 312 278 253 234 244 245 239 240 245 263 272 268 302 308 303 269 281 311 288 296 295 322 314 327 341 8 19 31 48 86 143
282 270 265 261 259 246 227 252 190 211 215 268 283 280 193 217 234 239 237 220 225 245 243 236 275 199 254 269 274 293 322 321 317 323 344 352 346 332 359 19 38 81 99 122
268 263 270 275 278 271 269 267 250 256 258 247 269 268 267 195 246 206 211 220 210 225 248 246 270 172 237 256 272 331 324 326 325 336 354 347 343 353 22 29 33 80 107 129
260 260 285 296 260 239 219 231 247 200 212 250 223 272 290 187 248 269 231 192 232 225 231 221 202 233 213 279 330 342 344 351 329 335 1 3 15 10 19 39 41 53 96 143
245 265 267 240 176 235 227 173 173 194 221 235 257 246 257 274 297 272 244 198 211 223 213 158 229 223 89 111 63 22 33 18 7 10 5 4 13 16 16 25 45 68 72 137
217 216 232 240 262 221 219 210 193 189 229 220 234 231 241 241 250 302 285 223 227 269 145 256 223 173 121 138 121 92 70 53 40 38 29 18 14 15 21 31 43 63 79 132
204 214 243 219 218 219 245 214 196 204 239 191 214 201 207 219 226 245 248 256 257 261 175 238 236 104 131 140 136 114 82 58 58 39 41 35 32 29 36 46 51 72 98 138
233 212 232 193 214 230 232 203 212 207 221 210 206 191 205 210 220 247 225 242 227 196 229 221 89 133 132 128 129 122 99 80 81 69 61 54 53 48 47 53 63 80 109 153
206 203 235 223 196 234 223 246 263 233 163 244 213 192 213 215 205 237 235 225 228 236 220 230 135 139 139 134 132 127 111 101 94 79 71 69 65 65 63 60 64 78 107 141
218 214 232 219 240 261 280 285 275 258 251 252 233 221 225 228 238 248 242 237 227 234 54 112 120 140 143 141 138 134 131 121 109 97 79 70 67 65 66 66 67 70 90 115
224 224 252 265 281 268 258 242 250 256 249 248 267 248 237 214 216 219 213 253 275 67 115 111 135 147 151 150 146 138 128 121 114 101 88 78 74 71 73 67 73 84 90 102
211 220 231 255 279 275 268 299 297 302 274 236 231 238 218 222 222 222 205 225 132 123 125 140 153 158 156 153 148 142 137 128 119 107 97 93 83 71 63 71 88 104 105 107